Crookston, MN

1:21 AM CDT on April 26, 2018 (GMT -0500)
Crookston Municipal-Kirkwood

Weather History for KCKN - August, 2014

Change the Weather History Date:

Monday, August 25, 2014

  Actual Average Record
Temperature  
Mean Temperature 54 °F -  
Max Temperature 60 °F 76 °F 95 °F (2013)
Min Temperature 48 °F 52 °F 41 °F (2015)
Degree Days  
Heating Degree Days 11    
Growing Degree Days 4 (Base 50)    
Moisture  
Dew Point 50 °F    
Average Humidity 79    
Maximum Humidity 100    
Minimum Humidity 63    
Precipitation  
Precipitation 0.00 in - - ()
Sea Level Pressure  
Sea Level Pressure 29.88 in    
Wind  
Wind Speed 13 mph (WSW)    
Max Wind Speed 28 mph    
Max Gust Speed 33 mph    
Visibility 10 miles    
Events Rain    
Averages and records for this station are not official NWS values.
T = Trace of Precipitation, MM = Missing Value Source: NWS Daily Summary

Daily Weather History Graph

Daily Weather History Graph

Search for Another Location

Airport or City:

Astronomy

Aug. 25, 2014 Rise Set
Actual Time 6:35 AM CDT 8:20 PM CDT
Civil Twilight 6:02 AM CDT 8:53 PM CDT
Nautical Twilight 5:22 AM CDT 9:33 PM CDT
Astronomical Twilight 4:38 AM CDT 10:17 PM CDT
Moon 6:45 AM CDT (8/25) 8:05 PM CDT (8/25)
Length of Visible Light 14h 51m
Length of Day
13h 45m
New Moon, 0% of the Moon is Illuminated
Aug 25
New Moon
Sep 2
First Quarter
Sep 8
Full
Sep 15
Last Quarter
Sep 24
New

Hourly Weather History & Observations

Time (CDT) Temp. Dew Point Humidity Pressure Visibility Wind Dir Wind Speed Gust Speed Precip Events Conditions
12:15 AM 60.8 °F 53.6 °F 77% 29.76 in 10.0 mi SSW 9.2 mph - N/A   Clear
12:34 AM 59.0 °F 53.6 °F 82% 29.76 in 10.0 mi SSW 8.1 mph - N/A   Clear
12:55 AM 57.2 °F 53.6 °F 88% 29.75 in 10.0 mi SW 9.2 mph - N/A   Clear
1:14 AM 57.2 °F 53.6 °F 88% 29.76 in 10.0 mi SW 11.5 mph - N/A   Clear
1:34 AM 59.0 °F 53.6 °F 82% 29.75 in 10.0 mi SW 9.2 mph - N/A   Scattered Clouds
1:55 AM 57.2 °F 53.6 °F 88% 29.75 in 10.0 mi SW 10.4 mph - N/A   Mostly Cloudy
2:14 AM 59.0 °F 51.8 °F 77% 29.75 in 10.0 mi SW 11.5 mph - N/A   Scattered Clouds
2:35 AM 57.2 °F 51.8 °F 82% 29.75 in 10.0 mi SW 10.4 mph - N/A   Clear
2:54 AM 57.2 °F 51.8 °F 82% 29.75 in 10.0 mi SSW 11.5 mph - N/A   Clear
3:14 AM 57.2 °F 51.8 °F 82% 29.75 in 10.0 mi SW 11.5 mph - N/A   Clear
3:35 AM 57.2 °F 50.0 °F 77% 29.76 in 10.0 mi SW 13.8 mph - N/A   Clear
4:14 AM 55.4 °F 50.0 °F 82% 29.76 in 10.0 mi SSW 10.4 mph - N/A   Clear
4:35 AM 55.4 °F 50.0 °F 82% 29.76 in 10.0 mi SW 11.5 mph - N/A   Clear
4:54 AM 55.4 °F 50.0 °F 82% 29.76 in 10.0 mi SSW 11.5 mph - N/A   Clear
5:15 AM 55.4 °F 50.0 °F 82% 29.77 in 10.0 mi SW 13.8 mph - N/A   Clear
5:34 AM 55.4 °F 50.0 °F 82% 29.77 in 10.0 mi SSW 12.7 mph 18.4 mph N/A   Clear
5:54 AM 55.4 °F 50.0 °F 82% 29.76 in 10.0 mi SSW 13.8 mph - N/A   Clear
6:14 AM 55.4 °F 50.0 °F 82% 29.76 in 10.0 mi SW 16.1 mph 19.6 mph N/A   Scattered Clouds
6:34 AM 55.4 °F 50.0 °F 82% 29.76 in 10.0 mi SW 13.8 mph - N/A   Mostly Cloudy
6:55 AM 55.4 °F 50.0 °F 82% 29.77 in 10.0 mi SSW 13.8 mph - N/A   Overcast
7:14 AM 55.4 °F 50.0 °F 82% 29.76 in 10.0 mi SSW 12.7 mph - N/A   Scattered Clouds
7:35 AM 55.4 °F 50.0 °F 82% 29.76 in 10.0 mi SW 16.1 mph 19.6 mph N/A   Scattered Clouds
7:54 AM 57.2 °F 51.8 °F 82% 29.76 in 10.0 mi SW 17.3 mph 21.9 mph N/A   Scattered Clouds
8:14 AM 57.2 °F 51.8 °F 82% 29.76 in 10.0 mi SW 17.3 mph 24.2 mph N/A   Scattered Clouds
8:35 AM 59.0 °F 51.8 °F 77% 29.77 in 10.0 mi SW 20.7 mph - N/A   Mostly Cloudy
8:54 AM 59.0 °F 51.8 °F 77% 29.78 in 10.0 mi SW 19.6 mph 24.2 mph N/A   Overcast
9:34 AM 60.8 °F 51.8 °F 72% 29.80 in 10.0 mi West 27.6 mph 33.4 mph N/A   Overcast
9:55 AM 60.8 °F 51.8 °F 72% 29.81 in 10.0 mi West 26.5 mph 31.1 mph N/A   Overcast
10:14 AM 60.8 °F 53.6 °F 77% 29.82 in 10.0 mi West 20.7 mph 32.2 mph N/A   Mostly Cloudy
10:34 AM 60.8 °F 51.8 °F 72% 29.84 in 10.0 mi West 21.9 mph 29.9 mph N/A   Mostly Cloudy
10:55 AM 60.8 °F 51.8 °F 72% 29.85 in 10.0 mi WNW 21.9 mph 27.6 mph N/A   Mostly Cloudy
11:14 AM 60.8 °F 51.8 °F 72% 29.86 in 10.0 mi WNW 23.0 mph 27.6 mph N/A   Overcast
11:34 AM 60.8 °F 50.0 °F 68% 29.88 in 10.0 mi WNW 19.6 mph 24.2 mph N/A   Overcast
11:55 AM 60.8 °F 51.8 °F 72% 29.89 in 10.0 mi West 15.0 mph 21.9 mph N/A   Overcast
12:14 PM 60.8 °F 53.6 °F 77% 29.90 in 10.0 mi West 17.3 mph - N/A   Overcast
12:35 PM 57.2 °F 53.6 °F 88% 29.91 in 5.0 mi West 15.0 mph - N/A   Overcast
12:54 PM 59.0 °F 51.8 °F 77% 29.92 in 10.0 mi West 19.6 mph 24.2 mph N/A   Overcast
1:14 PM 60.8 °F 51.8 °F 72% 29.91 in 10.0 mi West 20.7 mph 24.2 mph N/A   Overcast
1:34 PM 60.8 °F 50.0 °F 68% 29.92 in 10.0 mi West 20.7 mph 25.3 mph N/A   Overcast
1:54 PM 60.8 °F 50.0 °F 68% 29.91 in 10.0 mi WNW 20.7 mph 27.6 mph N/A   Overcast
2:14 PM 60.8 °F 50.0 °F 68% 29.92 in 10.0 mi West 20.7 mph - N/A   Overcast
2:34 PM 60.8 °F 48.2 °F 63% 29.92 in 10.0 mi WNW 16.1 mph - N/A   Overcast
2:55 PM 60.8 °F 48.2 °F 63% 29.93 in 10.0 mi WNW 16.1 mph 21.9 mph N/A   Overcast
3:14 PM 60.8 °F 48.2 °F 63% 29.94 in 10.0 mi West 16.1 mph 21.9 mph N/A   Overcast
3:34 PM 60.8 °F 48.2 °F 63% 29.94 in 10.0 mi West 16.1 mph 24.2 mph N/A   Overcast
3:54 PM 60.8 °F 48.2 °F 63% 29.94 in 10.0 mi West 19.6 mph 23.0 mph N/A   Overcast
4:15 PM 60.8 °F 48.2 °F 63% 29.94 in 10.0 mi WNW 19.6 mph 24.2 mph N/A   Overcast
4:34 PM 60.8 °F 48.2 °F 63% 29.95 in 10.0 mi WNW 19.6 mph - N/A   Overcast
4:54 PM 60.8 °F 48.2 °F 63% 29.96 in 10.0 mi West 18.4 mph 23.0 mph N/A   Overcast
5:14 PM 59.0 °F 48.2 °F 67% 29.97 in 10.0 mi WNW 12.7 mph 21.9 mph N/A   Overcast
5:34 PM 57.2 °F 50.0 °F 77% 29.97 in 10.0 mi West 15.0 mph - N/A   Overcast
5:55 PM 57.2 °F 51.8 °F 82% 29.98 in 10.0 mi West 10.4 mph - N/A   Overcast
6:14 PM 57.2 °F 50.0 °F 77% 29.98 in 10.0 mi WNW 8.1 mph 18.4 mph N/A   Overcast
6:35 PM 57.2 °F 50.0 °F 77% - 7.0 mi West 15.0 mph - N/A Rain Light Rain
6:54 PM 55.4 °F 50.0 °F 82% 29.99 in 7.0 mi WNW 10.4 mph - N/A Rain Light Rain
7:14 PM 55.4 °F 51.8 °F 88% 30.00 in 10.0 mi West 6.9 mph - N/A   Overcast
7:35 PM 53.6 °F 50.0 °F 88% 30.01 in 10.0 mi WNW 10.4 mph - N/A   Overcast
7:54 PM 53.6 °F 50.0 °F 88% 30.01 in 10.0 mi WNW 10.4 mph - N/A   Overcast
8:14 PM 53.6 °F 50.0 °F 88% 30.01 in 10.0 mi NNW 6.9 mph 12.7 mph N/A   Mostly Cloudy
8:34 PM 53.6 °F 50.0 °F 88% 30.01 in 10.0 mi West 5.8 mph - N/A   Mostly Cloudy
8:54 PM 51.8 °F 48.2 °F 88% 30.02 in 10.0 mi West 6.9 mph - N/A   Scattered Clouds
9:15 PM 51.8 °F 48.2 °F 88% 30.03 in 10.0 mi West 6.9 mph - N/A   Clear
9:34 PM 51.8 °F 48.2 °F 88% 30.04 in 10.0 mi West 6.9 mph - N/A   Clear
10:14 PM 51.8 °F 48.2 °F 88% 30.05 in 10.0 mi West 4.6 mph - N/A   Mostly Cloudy
10:34 PM 48.2 °F 48.2 °F 100% 30.06 in 10.0 mi West 6.9 mph - N/A   Scattered Clouds
10:55 PM 48.2 °F 46.4 °F 93% 30.06 in 10.0 mi West 5.8 mph - N/A   Scattered Clouds
11:14 PM 48.2 °F 46.4 °F 93% 30.07 in 10.0 mi West 5.8 mph - N/A   Clear
11:34 PM 48.2 °F 46.4 °F 93% 30.08 in 10.0 mi West 6.9 mph - N/A   Clear